[[{"header":{"parameterUnit":"m.s-1","parameterCategory":2,"la1":30.2991,"la2":30.254,"lo1":-89.0895,"lo2":-89.0444,"dy":0.0017,"dx":0.0017,"nx":28,"ny":28,"refTime":"2025-12-27T09:00:00:Z","depth":"0","parameterNumber":2,"parameterNumberName":"U-component_of_CURRENTS"},"data":[0,0,0,0,0,0,0,0,0,0,0,0,0,0,0,0,0,0,0,0,0,0,0,0,0,0,0,0,0,0,0,0,0,0,0,0,0,0,0,0,0,0,0,0,0,0,0,0,0,0,0,0,0,0,0,0,0,0,0.2777,0.2777,0,0.2791,0.2791,0.2791,0.2794,0.2794,0.2794,0.2794,0.2818,0.2819,0.282,0,0,0,0,0,0,0,0,0,0,0,0,0,0.2734,0.2735,0.2777,0.2777,0.2777,0.2791,0.2791,0.2792,0.2794,0.2794,0.2794,0.2794,0.2818,0.2819,0.282,0,0,0,0,0,0,0,0,0,0,0,0,0,0.275,0.2735,0.2777,0.2782,0.2782,0.2791,0.2791,0.2792,0.2794,0.2794,0.2794,0.2794,0.2818,0.2819,0.282,0.2824,0,0,0.2822,0.2823,0,0,0,0,0,0,0,0,0.2749,0.2751,0.2781,0.2781,0.2782,0.2793,0.2785,0.2803,0.2794,0.2788,0.2794,0.2794,0.2812,0.2813,0.2813,0.2825,0.2826,0.2823,0.2823,0.2823,0.2824,0,0,0,0,0,0,0,0.2748,0.275,0.2781,0.2781,0.2782,0.2778,0.278,0.2789,0.2798,0.2788,0.2789,0.2793,0.2812,0.2812,0.2814,0.2827,0.2823,0.2823,0.2824,0.2824,0.2889,0.289,0,0,0,0,0,0,0.275,0.275,0.278,0.2781,0.2767,0.2779,0.2781,0.2788,0.2798,0.28,0.2793,0.2794,0.2811,0.2813,0.2815,0.2852,0.2823,0.2824,0.2825,0.2888,0.2889,0.2891,0,0,0,0,0,0,0.275,0.2753,0.278,0.2767,0.277,0.278,0.2787,0.2788,0.2795,0.2802,0.2804,0.28,0.2811,0.2813,0.2834,0.2852,0.2825,0.2826,0.2887,0.2888,0.289,0.2906,0,0,0,0,0,0,0.2748,0.2753,0.2757,0.2767,0.2771,0.2795,0.2787,0.2788,0.2798,0.2798,0.2808,0.281,0.2811,0.2833,0.2835,0.2852,0.2826,0.2885,0.2887,0.289,0.2904,0.2909,0.2912,0,0,0,0,0,0.2747,0.2752,0.2757,0.2761,0.2777,0.2796,0.2797,0.2802,0.2798,0.2807,0.2815,0.281,0.2849,0.2835,0.2837,0.2855,0.2884,0.2887,0.2889,0.2903,0.2908,0.2912,0,0,0,0,0,0,0.2729,0.2753,0.2759,0.277,0.2787,0.2797,0.2802,0.2806,0.2818,0.2818,0.2821,0.2824,0.2856,0.2853,0.2837,0.2882,0.2868,0.2871,0.2877,0.2882,0.2886,0.2895,0.2827,0,0,0,0,0,0.2729,0.2743,0.2764,0.2773,0.2782,0.2793,0.28,0.2807,0.2819,0.2824,0.2827,0.284,0.2867,0.2871,0.2892,0.2906,0.2939,0.2922,0.2926,0.2929,0.2941,0.3009,0.3021,0.2899,0.2899,0.2899,0,0,0.272,0.2739,0.2743,0.2771,0.2781,0.2792,0.2797,0.2813,0.2824,0.2825,0.2835,0.2857,0.2878,0.2904,0.2917,0.2901,0.2983,0.2933,0.2935,0.2945,0.3013,0.3025,0.3036,0.2901,0.2901,0.2901,0,0,0.271,0.2731,0.2738,0.2757,0.2783,0.2795,0.2802,0.2818,0.283,0.2846,0.2862,0.2896,0.2907,0.2936,0.2951,0.2988,0.3009,0.2991,0.3006,0.3073,0.3083,0.3093,0.3155,0.3171,0.2982,0.2982,0.2982,0,0.2694,0.2712,0.2742,0.2756,0.2766,0.2796,0.2802,0.2823,0.2842,0.286,0.2852,0.2913,0.2927,0.2983,0.2997,0.2998,0.3038,0.2983,0.3078,0.3089,0.3098,0.316,0.3176,0.2983,0.2983,0.2983,0.2983,0,0.2692,0.2707,0.2714,0.2742,0.2759,0.2773,0.2807,0.283,0.2844,0.2864,0.292,0.295,0.2986,0.3,0.3008,0.3086,0.3094,0.3084,0.3065,0.3112,0.3173,0.319,0.2985,0.2984,0.2984,0.2984,0,0,0.2643,0.2699,0.2699,0.2709,0.2754,0.2763,0.2801,0.2842,0.2865,0.2903,0.2937,0.3,0.3025,0.3046,0.307,0.3124,0.3227,0.313,0.3133,0.319,0.3381,0.3373,0.3391,0.3234,0.3237,0.3239,0.3398,0,0.2625,0.2644,0.2681,0.2691,0.2699,0.275,0.2779,0.2825,0.2865,0.2906,0.2975,0.3015,0.304,0.3059,0.3126,0.3205,0.3272,0.3185,0.333,0.3335,0.332,0.341,0.3371,0.3508,0.3415,0.3417,0.342,0,0.2598,0.262,0.2626,0.2668,0.2676,0.2687,0.2741,0.2775,0.2863,0.2896,0.297,0.3019,0.3125,0.3121,0.3304,0.3249,0.3324,0.338,0.3387,0.3387,0.3358,0.3446,0.3542,0.3383,0.3446,0.3444,0.3442,0,0.2533,0.2573,0.2576,0.2589,0.2645,0.2659,0.269,0.2765,0.28,0.2893,0.2928,0.3056,0.3114,0.3244,0.3376,0.3348,0.3567,0.3537,0.3606,0.3605,0.3605,0.36,0.3563,0.367,0.367,0.367,0.3669,0,0.249,0.2488,0.2544,0.2542,0.2549,0.2606,0.2624,0.2681,0.2763,0.2808,0.2916,0.2979,0.3148,0.3286,0.3402,0.3574,0.36,0.3642,0.3659,0.3609,0.3602,0.3488,0.3415,0.3675,0.3674,0.3673,0.3672,0,0.241,0.2448,0.2452,0.2503,0.2514,0.2516,0.2573,0.2595,0.2686,0.2751,0.2784,0.2947,0.3135,0.3309,0.3521,0.3598,0.3665,0.3803,0.3732,0.3738,0.3628,0.3559,0.3475,0.3388,0.3911,0.3912,0.3913,0,0.2369,0.2366,0.2404,0.2399,0.2416,0.2433,0.2446,0.2538,0.2575,0.2731,0.2763,0.2955,0.3089,0.3409,0.3604,0.3833,0.3693,0.3889,0.3826,0.3641,0.3577,0.3399,0.3318,0.384,0.384,0.384,0.3841,0,0.2291,0.2308,0.231,0.2307,0.2308,0.2321,0.2356,0.2381,0.2503,0.2584,0.2714,0.2835,0.3154,0.3361,0.365,0.3803,0.3691,0.3895,0.3734,0.3554,0.3332,0.3249,0.3701,0.3841,0.3841,0.3841,0.3841,0.3841,0.2223,0.2204,0.2208,0.2198,0.22,0.2204,0.2201,0.2277,0.2344,0.2471,0.2617,0.279,0.3106,0.3517,0.3639,0.3764,0.3689,0.3712,0.3661,0.3506,0.3358,0.3806,0.3933,0.3933,0.3933,0.3934,0.3934,0,0.2126,0.2114,0.2101,0.2083,0.2056,0.2095,0.2132,0.2145,0.2214,0.2385,0.2509,0.2804,0.305,0.3317,0.3563,0.3511,0.3416,0.3436,0.3168,0.3116,0.3567,0.3495,0.3494,0.3494,0.3495,0.3495,0.3495,0.3495,0.2067,0.2018,0.2016,0.1945,0.1934,0.1901,0.1912,0.1971,0.2086,0.2246,0.2403,0.2577,0.2861,0.3159,0.3225,0.3217,0.294,0.2885,0.2785,0.3086,0.3105,0.3124,0.3034,0.2938,0.2937,0.2257,0.2252,0.2248]},{"header":{"parameterUnit":"m.s-1","parameterCategory":2,"la1":30.2991,"la2":30.254,"lo1":-89.0895,"lo2":-89.0444,"dy":0.0017,"dx":0.0017,"nx":28,"ny":28,"refTime":"2025-12-27T09:00:00:Z","depth":"0","parameterNumber":3,"parameterNumberName":"V-component_of_CURRENTS"},"data":[0,0,0,0,0,0,0,0,0,0,0,0,0,0,0,0,0,0,0,0,0,0,0,0,0,0,0,0,0,0,0,0,0,0,0,0,0,0,0,0,0,0,0,0,0,0,0,0,0,0,0,0,0,0,0,0,0,0,0.0933,0.0933,0,0.0873,0.0873,0.0872,0.0856,0.0856,0.0857,0.0857,0.0814,0.0812,0.0811,0,0,0,0,0,0,0,0,0,0,0,0,0,0.0997,0.0996,0.0934,0.0933,0.0932,0.0873,0.0873,0.0872,0.0856,0.0856,0.0857,0.0857,0.0814,0.0813,0.0811,0,0,0,0,0,0,0,0,0,0,0,0,0,0.0956,0.0996,0.0934,0.0917,0.0915,0.0874,0.0872,0.0871,0.0856,0.0856,0.0857,0.0857,0.0815,0.0813,0.0811,0.0785,0,0,0.0804,0.0803,0,0,0,0,0,0,0,0,0.0959,0.0954,0.092,0.0918,0.0916,0.0873,0.0879,0.0844,0.0856,0.0878,0.0857,0.0858,0.0835,0.0831,0.0818,0.0783,0.0782,0.0804,0.0802,0.0801,0.0801,0,0,0,0,0,0,0,0.0962,0.0956,0.091,0.092,0.0917,0.09,0.0895,0.0872,0.0854,0.0876,0.0875,0.0868,0.0834,0.082,0.0817,0.0781,0.0804,0.0802,0.08,0.0799,0.0745,0.0745,0,0,0,0,0,0,0.0971,0.0959,0.0911,0.0908,0.0939,0.0898,0.0893,0.0886,0.0854,0.085,0.0868,0.0868,0.0824,0.082,0.0815,0.0818,0.0801,0.0799,0.0798,0.0745,0.0745,0.0745,0,0,0,0,0,0,0.0972,0.0967,0.0914,0.0932,0.0924,0.0897,0.0889,0.0884,0.0878,0.0848,0.0844,0.0867,0.0824,0.0819,0.0812,0.0815,0.0798,0.0796,0.0746,0.0745,0.0745,0.0801,0,0,0,0,0,0,0.0974,0.0968,0.0969,0.0933,0.0924,0.0903,0.0888,0.0883,0.0872,0.0872,0.0845,0.0841,0.0824,0.0815,0.0809,0.0811,0.0794,0.0746,0.0745,0.0745,0.0799,0.0802,0.0805,0,0,0,0,0,0.0977,0.0978,0.0969,0.0964,0.0925,0.0904,0.0898,0.088,0.0872,0.0875,0.086,0.0842,0.081,0.0814,0.0807,0.0808,0.0746,0.0746,0.0745,0.0797,0.0802,0.0805,0,0,0,0,0,0,0.1007,0.0975,0.0965,0.0957,0.0938,0.0902,0.0898,0.0883,0.0871,0.0871,0.0845,0.0841,0.0834,0.0811,0.0816,0.079,0.0772,0.0771,0.0814,0.0818,0.0821,0.0834,0.0792,0,0,0,0,0,0.1013,0.1006,0.0975,0.0969,0.096,0.0929,0.0918,0.0906,0.0887,0.0882,0.0862,0.084,0.0824,0.0816,0.0797,0.0784,0.0763,0.0777,0.0781,0.0784,0.0788,0.0759,0.0761,0.0745,0.0745,0.0745,0,0,0.1022,0.1005,0.1,0.0976,0.0956,0.0947,0.0925,0.0912,0.0908,0.0878,0.0871,0.0852,0.0824,0.0815,0.0808,0.0799,0.0778,0.0783,0.0787,0.079,0.0759,0.0761,0.0762,0.0744,0.0745,0.0745,0,0,0.1032,0.1021,0.1016,0.1005,0.0982,0.0964,0.0964,0.0932,0.0926,0.0913,0.0894,0.0884,0.0849,0.0837,0.0824,0.0831,0.0798,0.0817,0.0843,0.0815,0.0817,0.0817,0.0801,0.08,0.0817,0.0817,0.0817,0,0.104,0.1033,0.1013,0.1007,0.1002,0.0975,0.0974,0.096,0.0933,0.0933,0.092,0.0881,0.0861,0.0854,0.0858,0.084,0.0819,0.0835,0.0821,0.0821,0.0821,0.0804,0.0802,0.082,0.0819,0.0819,0.0819,0,0.1044,0.1042,0.104,0.1025,0.1021,0.1016,0.0997,0.0997,0.0982,0.0965,0.0956,0.0926,0.0907,0.0894,0.0878,0.0869,0.0853,0.0832,0.0816,0.0826,0.0807,0.0804,0.0823,0.0823,0.0822,0.0821,0,0,0.1041,0.104,0.104,0.1047,0.1032,0.1031,0.1035,0.1029,0.1037,0.1008,0.1013,0.0981,0.0965,0.0949,0.0925,0.09,0.0886,0.0869,0.0866,0.0861,0.0829,0.0806,0.08,0.0859,0.0859,0.0859,0.0819,0,0.1045,0.1049,0.1048,0.1062,0.1064,0.1062,0.1074,0.1072,0.1059,0.1059,0.1029,0.102,0.0985,0.0981,0.0951,0.0914,0.0879,0.0899,0.0811,0.0809,0.0794,0.0796,0.0803,0.0766,0.0816,0.0815,0.0815,0,0.1043,0.1049,0.1061,0.1093,0.1095,0.1105,0.1128,0.1136,0.1133,0.1126,0.1108,0.108,0.1063,0.1017,0.0951,0.0966,0.0898,0.0855,0.0851,0.0808,0.078,0.076,0.0758,0.0598,0.081,0.0811,0.0811,0,0.1048,0.1063,0.1079,0.1084,0.1108,0.1127,0.1146,0.1154,0.1172,0.1167,0.1175,0.1137,0.1127,0.1049,0.0974,0.0957,0.0892,0.0856,0.0765,0.0763,0.0741,0.0737,0.0582,0.0779,0.0779,0.0779,0.078,0,0.105,0.1065,0.1085,0.1094,0.1131,0.1148,0.1186,0.1198,0.122,0.1249,0.1211,0.1223,0.113,0.1085,0.0997,0.0893,0.0909,0.0772,0.0749,0.076,0.0759,0.0596,0.051,0.0778,0.0778,0.0779,0.0779,0,0.105,0.1059,0.1083,0.1117,0.1131,0.116,0.1216,0.1248,0.1266,0.1302,0.1307,0.1289,0.1245,0.1149,0.1036,0.0927,0.0737,0.0773,0.0802,0.0782,0.0532,0.0451,0.0303,0.0216,0.0661,0.066,0.0659,0,0.1047,0.1058,0.1096,0.112,0.1135,0.1181,0.1222,0.1262,0.1297,0.1348,0.1372,0.1346,0.1351,0.1195,0.1012,0.0857,0.0711,0.0715,0.067,0.0517,0.041,0.0372,0.0307,0.0667,0.0666,0.0665,0.0665,0,0.1049,0.1062,0.1087,0.1132,0.1173,0.1228,0.1286,0.1325,0.1384,0.1431,0.1484,0.1501,0.1361,0.1227,0.1009,0.088,0.06,0.0697,0.0528,0.0389,0.035,0.0257,0.0699,0.0661,0.0661,0.0661,0.0662,0.0662,0.1052,0.1071,0.1107,0.1151,0.1201,0.1275,0.133,0.1406,0.1491,0.1592,0.1591,0.1675,0.1448,0.1168,0.0944,0.0535,0.0536,0.0403,0.0317,0.0294,0.0202,0.0637,0.0575,0.0575,0.0575,0.0575,0.0575,0,0.1054,0.1084,0.1128,0.1187,0.1247,0.1276,0.1375,0.145,0.1563,0.1697,0.1771,0.1774,0.1448,0.1105,0.0561,0.0231,0.0117,0.005,-0.0015,-0.0067,0.031,0.03,0.019,0.019,0.019,0.019,0.0191,0.0191,0.1057,0.1095,0.1121,0.1211,0.1262,0.1357,0.1421,0.1546,0.167,0.1866,0.1984,0.2079,0.1818,0.0775,0.0044,-0.0116,-0.0355,-0.0387,-0.0526,-0.0285,-0.0259,-0.0234,-0.0265,-0.0492,-0.0493,-0.0852,-0.0856,-0.0859]}],[{"header":{"parameterUnit":"m.s-1","parameterCategory":2,"la1":30.2991,"la2":30.254,"lo1":-89.0895,"lo2":-89.0444,"dy":0.0017,"dx":0.0017,"nx":28,"ny":28,"refTime":"2025-12-27T09:00:00:Z","depth":"2","parameterNumber":2,"parameterNumberName":"U-component_of_CURRENTS"},"data":[0,0,0,0,0,0,0,0,0,0,0,0,0,0,0,0,0,0,0,0,0,0,0,0,0,0,0,0,0,0,0,0,0,0,0,0,0,0,0,0,0,0,0,0,0,0,0,0,0,0,0,0,0,0,0,0,0,0,0.1151,0.1151,0,0.1171,0.1171,0.1171,0.1177,0.1177,0.1177,0.1177,0.1184,0.1184,0.1184,0,0,0,0,0,0,0,0,0,0,0,0,0,0.1126,0.1126,0.1151,0.1151,0.1152,0.1171,0.1171,0.1171,0.1177,0.1177,0.1177,0.1177,0.1184,0.1184,0.1184,0,0,0,0,0,0,0,0,0,0,0,0,0,0.1139,0.1126,0.1151,0.1158,0.1159,0.1171,0.1171,0.1171,0.1177,0.1177,0.1177,0.1177,0.1184,0.1184,0.1184,0.1184,0,0,0.1185,0.1185,0,0,0,0,0,0,0,0,0.1138,0.1139,0.1156,0.1157,0.1159,0.1173,0.1165,0.1175,0.1177,0.1168,0.1177,0.1177,0.118,0.118,0.1182,0.1185,0.1185,0.1185,0.1185,0.1185,0.1185,0,0,0,0,0,0,0,0.1137,0.1139,0.1157,0.1157,0.1158,0.1163,0.1165,0.1167,0.1172,0.1169,0.117,0.1174,0.118,0.1182,0.1182,0.1185,0.1185,0.1185,0.1185,0.1185,0.1243,0.1244,0,0,0,0,0,0,0.1137,0.1138,0.1157,0.1158,0.115,0.1163,0.1165,0.1167,0.1172,0.1174,0.1174,0.1175,0.1181,0.1182,0.1182,0.1234,0.1185,0.1185,0.1185,0.1241,0.1243,0.1244,0,0,0,0,0,0,0.1137,0.1139,0.1156,0.115,0.1152,0.1164,0.1166,0.1167,0.1182,0.1177,0.1178,0.119,0.1181,0.1182,0.1204,0.1232,0.1185,0.1185,0.124,0.1242,0.1244,0.1305,0,0,0,0,0,0,0.1136,0.1138,0.1143,0.115,0.1153,0.1176,0.1166,0.1168,0.1185,0.1186,0.119,0.119,0.1181,0.1204,0.1204,0.1232,0.1186,0.1238,0.1241,0.1243,0.1301,0.1309,0.1315,0,0,0,0,0,0.1135,0.1141,0.1143,0.1145,0.1157,0.1177,0.1179,0.1186,0.1186,0.1198,0.1205,0.119,0.122,0.1205,0.1205,0.1234,0.1237,0.124,0.1243,0.1298,0.1307,0.1315,0,0,0,0,0,0,0.1134,0.1142,0.1144,0.1153,0.117,0.1179,0.1191,0.1196,0.121,0.1213,0.1206,0.1207,0.1238,0.1227,0.121,0.1259,0.1227,0.123,0.1269,0.1278,0.1285,0.1287,0.1186,0,0,0,0,0,0.1135,0.1141,0.1155,0.1164,0.1174,0.1185,0.1195,0.1202,0.1214,0.1221,0.1226,0.1234,0.1248,0.1257,0.1264,0.1287,0.1306,0.1307,0.1314,0.132,0.1323,0.1373,0.1385,0.1255,0.1255,0.1255,0,0,0.1137,0.1144,0.1147,0.1165,0.1177,0.1198,0.1191,0.1214,0.1236,0.1219,0.1252,0.1258,0.1261,0.1291,0.1304,0.1288,0.1375,0.1324,0.133,0.1329,0.1377,0.139,0.1401,0.1257,0.1256,0.1256,0,0,0.1146,0.1152,0.1163,0.118,0.1205,0.1215,0.1227,0.1247,0.1262,0.1291,0.1291,0.1316,0.133,0.1345,0.1352,0.1402,0.1411,0.1407,0.1444,0.1493,0.1505,0.1514,0.1588,0.1604,0.141,0.141,0.141,0,0.1149,0.1163,0.1171,0.1193,0.1212,0.1227,0.1252,0.1271,0.1297,0.1318,0.1309,0.1357,0.1357,0.1404,0.1422,0.1419,0.1456,0.1411,0.1503,0.1513,0.1522,0.1595,0.1612,0.1413,0.1413,0.1413,0.1412,0,0.1166,0.1185,0.1198,0.1227,0.1251,0.1276,0.1305,0.1332,0.135,0.137,0.1421,0.1428,0.1459,0.1466,0.1458,0.1526,0.1537,0.1508,0.1482,0.1539,0.1612,0.1629,0.1418,0.1417,0.1416,0.1415,0,0,0.1156,0.1199,0.1206,0.1228,0.1272,0.1293,0.134,0.1386,0.1425,0.1451,0.1505,0.153,0.1542,0.155,0.1553,0.1589,0.1693,0.1579,0.158,0.1653,0.1832,0.179,0.1804,0.1683,0.1685,0.1687,0.187,0,0.117,0.1209,0.1232,0.1281,0.1306,0.1342,0.1385,0.143,0.1471,0.1528,0.1552,0.16,0.1573,0.1599,0.1634,0.1676,0.1734,0.1648,0.1764,0.1768,0.1723,0.182,0.1574,0.1711,0.1886,0.1888,0.189,0,0.118,0.1206,0.125,0.1311,0.1327,0.136,0.1437,0.148,0.156,0.1595,0.1649,0.1672,0.1743,0.1702,0.1818,0.1768,0.1811,0.1836,0.1843,0.1788,0.1755,0.1674,0.1733,0.1917,0.1915,0.1913,0.1911,0,0.1163,0.1222,0.1256,0.1276,0.1344,0.1378,0.1422,0.15,0.1548,0.1648,0.1695,0.1772,0.1825,0.1881,0.194,0.1892,0.207,0.2008,0.2019,0.2018,0.1821,0.1797,0.2098,0.2098,0.2098,0.2097,0.2097,0,0.1164,0.1194,0.125,0.1269,0.1322,0.1376,0.1445,0.1503,0.1594,0.1666,0.173,0.1802,0.1869,0.1968,0.2002,0.2083,0.2132,0.2055,0.2065,0.1839,0.1816,0.1985,0.1969,0.2104,0.2103,0.2101,0.21,0,0.1139,0.1176,0.1218,0.1287,0.1313,0.1352,0.1447,0.1496,0.1591,0.1691,0.1728,0.1857,0.2001,0.2083,0.2205,0.2166,0.224,0.2256,0.2004,0.198,0.2142,0.2128,0.2283,0.2283,0.2283,0.2283,0.2283,0,0.1127,0.1144,0.1217,0.1243,0.1276,0.134,0.1385,0.1484,0.1549,0.1722,0.1773,0.1944,0.2049,0.2229,0.219,0.2265,0.2341,0.2093,0.1932,0.2169,0.2163,0.2148,0.2134,0.1718,0.1714,0.171,0.1707,0,0.1102,0.1128,0.1161,0.1215,0.1261,0.1315,0.1396,0.1442,0.1574,0.1669,0.1827,0.1923,0.2055,0.2018,0.2096,0.2084,0.205,0.2019,0.2353,0.1699,0.1647,0.1638,0.1641,0.1674,0.1677,0.168,0.1681,0.1683,0.1079,0.1094,0.1137,0.1186,0.1236,0.1288,0.1321,0.1413,0.151,0.1621,0.1772,0.1826,0.183,0.1801,0.1809,0.1779,0.1889,0.1788,0.1795,0.1807,0.1698,0.1648,0.1657,0.166,0.1663,0.1665,0.1667,0,0.1049,0.1075,0.1109,0.1164,0.1195,0.1244,0.1323,0.1341,0.1431,0.1491,0.1601,0.1452,0.1448,0.1513,0.137,0.1369,0.1292,0.1369,0.1246,0.1278,0.1307,0.1169,0.099,0.0989,0.0988,0.0987,0,0,0.1036,0.1052,0.1071,0.1108,0.1151,0.1185,0.122,0.1248,0.1267,0.1236,0.1204,0.1295,0.1358,0.112,0.1112,0.1047,0.1147,0.0995,0.1519,0.1398,0.1426,0.1517,0.1336,0,0,0,0,0]},{"header":{"parameterUnit":"m.s-1","parameterCategory":2,"la1":30.2991,"la2":30.254,"lo1":-89.0895,"lo2":-89.0444,"dy":0.0017,"dx":0.0017,"nx":28,"ny":28,"refTime":"2025-12-27T09:00:00:Z","depth":"2","parameterNumber":3,"parameterNumberName":"V-component_of_CURRENTS"},"data":[0,0,0,0,0,0,0,0,0,0,0,0,0,0,0,0,0,0,0,0,0,0,0,0,0,0,0,0,0,0,0,0,0,0,0,0,0,0,0,0,0,0,0,0,0,0,0,0,0,0,0,0,0,0,0,0,0,0,-0.029,-0.029,0,-0.033,-0.033,-0.0331,-0.0357,-0.0357,-0.0357,-0.0357,-0.0424,-0.0426,-0.0428,0,0,0,0,0,0,0,0,0,0,0,0,0,-0.0244,-0.0245,-0.029,-0.029,-0.0291,-0.033,-0.033,-0.0331,-0.0357,-0.0357,-0.0357,-0.0357,-0.0424,-0.0426,-0.0428,0,0,0,0,0,0,0,0,0,0,0,0,0,-0.0272,-0.0245,-0.0289,-0.0309,-0.0311,-0.033,-0.033,-0.0331,-0.0357,-0.0357,-0.0357,-0.0358,-0.0423,-0.0426,-0.0428,-0.0437,0,0,-0.0435,-0.0436,0,0,0,0,0,0,0,0,-0.027,-0.0273,-0.0305,-0.0307,-0.031,-0.0339,-0.0339,-0.0368,-0.0357,-0.0339,-0.0357,-0.0358,-0.0398,-0.0403,-0.0409,-0.044,-0.0443,-0.0435,-0.0437,-0.0438,-0.0439,0,0,0,0,0,0,0,-0.0268,-0.0272,-0.0305,-0.0306,-0.0309,-0.0318,-0.0322,-0.0344,-0.0367,-0.034,-0.0343,-0.0347,-0.04,-0.0406,-0.0411,-0.0444,-0.0435,-0.0438,-0.0439,-0.044,-0.0505,-0.0506,0,0,0,0,0,0,-0.0263,-0.027,-0.0304,-0.0306,-0.0291,-0.0319,-0.0323,-0.0329,-0.0366,-0.0372,-0.0347,-0.0349,-0.0402,-0.0408,-0.0413,-0.0432,-0.0438,-0.044,-0.0442,-0.0505,-0.0505,-0.0506,0,0,0,0,0,0,-0.0262,-0.0266,-0.0302,-0.0289,-0.0295,-0.0319,-0.0325,-0.033,-0.0338,-0.0371,-0.0377,-0.0351,-0.0403,-0.041,-0.0434,-0.0434,-0.0441,-0.0443,-0.0505,-0.0505,-0.0506,-0.0465,0,0,0,0,0,0,-0.0261,-0.0265,-0.0264,-0.0289,-0.0295,-0.0309,-0.0325,-0.033,-0.034,-0.0342,-0.0376,-0.0382,-0.0403,-0.0431,-0.0437,-0.0438,-0.0445,-0.0504,-0.0505,-0.0505,-0.0466,-0.0464,-0.0462,0,0,0,0,0,-0.0259,-0.0254,-0.0264,-0.0268,-0.0294,-0.0309,-0.0313,-0.0331,-0.034,-0.034,-0.0366,-0.0381,-0.0439,-0.0433,-0.044,-0.0441,-0.0504,-0.0505,-0.0505,-0.0467,-0.0464,-0.0462,0,0,0,0,0,0,-0.0231,-0.0258,-0.0268,-0.0271,-0.0288,-0.0313,-0.0313,-0.0329,-0.0349,-0.0351,-0.0384,-0.0392,-0.0414,-0.0435,-0.0428,-0.0463,-0.0475,-0.0477,-0.0443,-0.0441,-0.0439,-0.0421,-0.0447,0,0,0,0,0,-0.0225,-0.023,-0.0256,-0.0257,-0.0264,-0.0289,-0.0296,-0.031,-0.0332,-0.0341,-0.0366,-0.0396,-0.0422,-0.0437,-0.0461,-0.0479,-0.0489,-0.0487,-0.0485,-0.0483,-0.0474,-0.0498,-0.0497,-0.0508,-0.0508,-0.0508,0,0,-0.0214,-0.0229,-0.0231,-0.0252,-0.0265,-0.027,-0.0294,-0.0302,-0.0308,-0.0346,-0.0359,-0.0389,-0.0426,-0.0446,-0.0458,-0.0464,-0.0483,-0.0484,-0.0482,-0.0474,-0.0499,-0.0498,-0.0497,-0.0508,-0.0508,-0.0508,0,0,-0.0193,-0.0207,-0.0205,-0.0216,-0.0235,-0.0251,-0.0253,-0.0279,-0.0292,-0.0311,-0.0341,-0.0367,-0.0407,-0.0431,-0.045,-0.0454,-0.0472,-0.0467,-0.0443,-0.0467,-0.0466,-0.0465,-0.0461,-0.0461,-0.0467,-0.0467,-0.0467,0,-0.0178,-0.018,-0.0205,-0.0205,-0.0208,-0.0241,-0.0236,-0.0255,-0.0286,-0.0294,-0.0309,-0.0365,-0.0397,-0.0423,-0.0428,-0.0448,-0.0457,-0.0446,-0.0463,-0.0463,-0.0462,-0.0459,-0.0459,-0.0465,-0.0465,-0.0465,-0.0465,0,-0.016,-0.0158,-0.0156,-0.0168,-0.0174,-0.0174,-0.0203,-0.0213,-0.0234,-0.0255,-0.0283,-0.0328,-0.036,-0.0379,-0.0407,-0.0425,-0.043,-0.0456,-0.0463,-0.0459,-0.0456,-0.0456,-0.0462,-0.0463,-0.0463,-0.0464,0,0,-0.0138,-0.0142,-0.0141,-0.0132,-0.0154,-0.0153,-0.0163,-0.0179,-0.0175,-0.0219,-0.0218,-0.0279,-0.0305,-0.0328,-0.0368,-0.0393,-0.0401,-0.0423,-0.0425,-0.0408,-0.0434,-0.0407,-0.0405,-0.0434,-0.0434,-0.0434,-0.0426,0,-0.0116,-0.0098,-0.0111,-0.009,-0.0081,-0.0106,-0.0108,-0.0126,-0.0147,-0.0155,-0.021,-0.0231,-0.0287,-0.0299,-0.0335,-0.0382,-0.0403,-0.0399,-0.045,-0.0451,-0.042,-0.0405,-0.0431,-0.0424,-0.0427,-0.0427,-0.0427,0,-0.0097,-0.0085,-0.006,-0.0042,-0.004,-0.0036,-0.0032,-0.0037,-0.0066,-0.0082,-0.0117,-0.0158,-0.0203,-0.0251,-0.0326,-0.0322,-0.0374,-0.0412,-0.0414,-0.0402,-0.0425,-0.0434,-0.0425,-0.0428,-0.0428,-0.0427,-0.0427,0,-0.0066,-0.0048,-0.0023,-0.0019,-0.001,-0.0003,-0.0001,-0.0016,-0.0006,-0.0035,-0.0026,-0.0095,-0.0111,-0.0197,-0.0276,-0.0307,-0.0341,-0.0395,-0.0416,-0.0414,-0.0451,-0.0452,-0.0447,-0.0447,-0.0447,-0.0447,-0.0447,0,-0.0041,-0.0017,-0.0005,0.001,0.0046,0.0037,0.0069,0.0059,0.0061,0.0093,0.0014,0.0035,-0.0101,-0.0138,-0.0237,-0.0305,-0.0312,-0.0398,-0.0411,-0.0436,-0.0435,-0.0458,-0.0459,-0.0446,-0.0446,-0.0447,-0.0447,0,-0.0012,-0.0007,0.003,0.0051,0.0061,0.0086,0.0119,0.0147,0.0137,0.018,0.0176,0.0137,0.0099,-0.0015,-0.0124,-0.023,-0.0314,-0.0338,-0.0338,-0.0351,-0.0384,-0.0384,-0.0375,-0.0374,-0.0373,-0.0373,-0.0372,0,0.0005,0.0025,0.0065,0.0094,0.0104,0.014,0.0171,0.0179,0.0222,0.0259,0.0297,0.0274,0.0293,0.0158,-0.0046,-0.0195,-0.0228,-0.0321,-0.0396,-0.0364,-0.0378,-0.0379,-0.0379,-0.0428,-0.0428,-0.0428,-0.0428,0,0.0043,0.0054,0.0084,0.0142,0.0182,0.0238,0.0289,0.034,0.0371,0.043,0.0523,0.0546,0.0402,0.0239,0.0016,-0.0104,-0.0305,-0.0323,-0.0294,-0.0433,-0.0411,-0.0425,-0.0425,-0.0427,-0.0427,-0.0427,-0.0427,-0.0427,0.0072,0.0103,0.0144,0.0199,0.0252,0.034,0.0409,0.0499,0.0606,0.0721,0.0715,0.0731,0.0466,0.018,-0.0007,-0.0242,-0.0257,-0.0376,-0.0378,-0.0379,-0.0378,-0.0355,-0.0359,-0.0359,-0.0358,-0.0358,-0.0358,0,0.0111,0.0148,0.0204,0.028,0.0354,0.0369,0.0494,0.0596,0.0769,0.0828,0.0929,0.0681,0.0488,0.0222,-0.0143,-0.0343,-0.0384,-0.0384,-0.0424,-0.0424,-0.0425,-0.0427,-0.042,-0.042,-0.042,-0.0421,0,0,0.0138,0.0195,0.0225,0.0353,0.0412,0.0534,0.0618,0.0795,0.087,0.0971,0.0933,0.0875,0.0492,0.0219,-0.0057,-0.0236,-0.0271,-0.026,-0.0201,-0.0219,-0.0216,-0.0424,-0.0428,0,0,0,0,0]}],[{"header":{"parameterUnit":"m.s-1","parameterCategory":2,"la1":30.2991,"la2":30.254,"lo1":-89.0895,"lo2":-89.0444,"dy":0.0017,"dx":0.0017,"nx":28,"ny":28,"refTime":"2025-12-27T09:00:00:Z","depth":"4","parameterNumber":2,"parameterNumberName":"U-component_of_CURRENTS"},"data":[0,0,0,0,0,0,0,0,0,0,0,0,0,0,0,0,0,0,0,0,0,0,0,0,0,0,0,0,0,0,0,0,0,0,0,0,0,0,0,0,0,0,0,0,0,0,0,0,0,0,0,0,0,0,0,0,0,0,0.0451,0.0452,0,0.0482,0.0482,0.0483,0.0512,0.0513,0.0513,0.0513,0.0556,0.0557,0.0558,0,0,0,0,0,0,0,0,0,0,0,0,0,0.0419,0.0419,0.0451,0.0452,0.0452,0.0482,0.0482,0.0483,0.0512,0.0513,0.0513,0.0514,0.0556,0.0557,0.0558,0,0,0,0,0,0,0,0,0,0,0,0,0,0.044,0.0419,0.0451,0.047,0.0472,0.0482,0.0482,0.0483,0.0512,0.0513,0.0513,0.0514,0.0556,0.0557,0.0558,0.0554,0,0,0.0562,0.0562,0,0,0,0,0,0,0,0,0.0438,0.0441,0.0467,0.0469,0.0471,0.0494,0.0487,0.0507,0.0512,0.0497,0.0513,0.0514,0.0536,0.0539,0.0543,0.0556,0.0558,0.0562,0.0562,0.0563,0.0563,0,0,0,0,0,0,0,0.0437,0.044,0.0464,0.0467,0.047,0.0477,0.0481,0.0491,0.0513,0.0499,0.0501,0.0504,0.0537,0.0542,0.0545,0.0559,0.0562,0.0563,0.0563,0.0564,0.065,0.0651,0,0,0,0,0,0,0.0432,0.0438,0.0463,0.0465,0.0456,0.0478,0.0482,0.0486,0.0513,0.0518,0.0503,0.0505,0.054,0.0543,0.0546,0.0616,0.0563,0.0564,0.0565,0.0648,0.065,0.0652,0,0,0,0,0,0,0.0431,0.0434,0.0461,0.0452,0.0456,0.0478,0.0482,0.0486,0.0512,0.0517,0.0521,0.0527,0.054,0.0545,0.057,0.0615,0.0564,0.0566,0.0646,0.0649,0.0651,0.0709,0,0,0,0,0,0,0.043,0.0434,0.0448,0.0452,0.0456,0.0477,0.0482,0.0487,0.0512,0.0515,0.0538,0.0542,0.0541,0.0568,0.0571,0.0616,0.0567,0.0644,0.0647,0.065,0.0705,0.0713,0.072,0,0,0,0,0,0.0429,0.044,0.0449,0.0453,0.0471,0.0478,0.0481,0.0498,0.0513,0.0524,0.0542,0.0542,0.059,0.057,0.0573,0.0619,0.0643,0.0647,0.065,0.0702,0.0711,0.0719,0,0,0,0,0,0,0.0431,0.0444,0.0454,0.0469,0.0479,0.0483,0.0498,0.051,0.0534,0.0547,0.0551,0.0555,0.0591,0.0597,0.0575,0.0653,0.0622,0.0626,0.066,0.0669,0.0676,0.0671,0.0567,0,0,0,0,0,0.0439,0.0452,0.0461,0.0474,0.0481,0.0495,0.0506,0.052,0.0534,0.0546,0.0565,0.0589,0.0605,0.063,0.0636,0.068,0.0667,0.0716,0.0723,0.0729,0.0728,0.0753,0.0763,0.0663,0.0663,0.0663,0,0,0.0439,0.0451,0.0458,0.0476,0.0487,0.0505,0.0504,0.0526,0.0548,0.0546,0.0592,0.0604,0.0616,0.0659,0.068,0.0676,0.0748,0.0734,0.0739,0.0734,0.0758,0.0768,0.0776,0.0666,0.0665,0.0665,0,0,0.0443,0.0462,0.0474,0.0485,0.0509,0.0524,0.0536,0.0559,0.0578,0.0614,0.0621,0.0655,0.0693,0.071,0.0722,0.0775,0.0771,0.08,0.0853,0.0878,0.0886,0.0893,0.0872,0.0877,0.0823,0.0823,0.0823,0,0.0451,0.0467,0.0478,0.0493,0.0509,0.0537,0.0556,0.0576,0.061,0.0629,0.0637,0.0698,0.0711,0.0758,0.079,0.079,0.0797,0.0818,0.0887,0.0894,0.09,0.0877,0.0882,0.0826,0.0826,0.0826,0.0825,0,0.0454,0.048,0.0487,0.0522,0.0538,0.0561,0.0587,0.0621,0.0657,0.0681,0.0732,0.0751,0.0792,0.0816,0.0825,0.0892,0.0876,0.0877,0.0862,0.0914,0.0886,0.0889,0.0831,0.083,0.0829,0.0828,0,0,0.0447,0.0486,0.0492,0.0512,0.056,0.0569,0.0615,0.0658,0.0695,0.0741,0.0785,0.0833,0.086,0.0875,0.0899,0.0941,0.0989,0.0952,0.0952,0.0925,0.1028,0.0977,0.0976,0.1022,0.1023,0.1024,0.0985,0,0.0456,0.0486,0.0508,0.0548,0.0567,0.0606,0.0643,0.0686,0.0733,0.0785,0.0819,0.087,0.0879,0.0922,0.0961,0.0986,0.1005,0.0997,0.0987,0.0986,0.093,0.0981,0.1029,0.0987,0.0988,0.0989,0.0989,0,0.0454,0.0478,0.0511,0.0563,0.0575,0.0612,0.0679,0.0716,0.0788,0.0825,0.0885,0.0915,0.0984,0.0982,0.1033,0.104,0.1039,0.1045,0.1044,0.0978,0.0943,0.093,0.0995,0.0994,0.0994,0.0993,0.0993,0,0.0428,0.0482,0.0511,0.0525,0.0588,0.062,0.0669,0.0738,0.0776,0.0866,0.091,0.0973,0.1016,0.1044,0.1065,0.1069,0.1101,0.1093,0.1023,0.1017,0.1045,0.1038,0.1106,0.1106,0.1106,0.1106,0.1106,0,0.0422,0.0447,0.0507,0.0518,0.057,0.0616,0.0682,0.0736,0.0816,0.0863,0.0939,0.0974,0.1046,0.1072,0.1077,0.1062,0.1101,0.1031,0.1017,0.1068,0.1064,0.1046,0.104,0.1104,0.1105,0.1105,0.1105,0,0.0387,0.0425,0.0459,0.0528,0.0557,0.0595,0.0693,0.0732,0.0821,0.0884,0.092,0.0997,0.1033,0.1064,0.1095,0.1066,0.106,0.1032,0.1063,0.105,0.0946,0.0944,0.095,0.0948,0.0946,0.0945,0.0944,0,0.0372,0.0383,0.0454,0.0479,0.0519,0.0588,0.0631,0.0729,0.0767,0.0876,0.0891,0.0964,0.1002,0.0993,0.103,0.1018,0.1006,0.0985,0.099,0.0952,0.0937,0.0937,0.0936,0.0941,0.0941,0.094,0.094,0,0.0338,0.0365,0.0391,0.0443,0.0493,0.0543,0.0615,0.064,0.0739,0.0821,0.0865,0.0899,0.0925,0.0949,0.0954,0.094,0.1003,0.0968,0.0971,0.0975,0.0942,0.0929,0.093,0.0935,0.0935,0.0936,0.0936,0,0.0312,0.0322,0.0356,0.0401,0.0458,0.0489,0.0532,0.0585,0.0642,0.0766,0.0766,0.0841,0.0906,0.0905,0.0903,0.0905,0.0889,0.0865,0.0873,0.0879,0.088,0.0828,0.0779,0,0,0,0,0,0.0283,0.0286,0.0313,0.0358,0.041,0.0442,0.0513,0.0553,0.0646,0.0662,0.0723,0.0748,0.0784,0.0811,0.0797,0.0848,0.0874,0.0826,0.0846,0.0905,0.0911,0.0921,0,0,0,0,0,0,0.0262,0.028,0.0291,0.0314,0.0335,0.0383,0.0424,0.0477,0.0496,0.0596,0.0616,0.0703,0.0736,0.0782,0.0781,0.079,0.0788,0.0875,0.0873,0.0901,0.0907,0.0912,0.0925,0,0,0,0,0]},{"header":{"parameterUnit":"m.s-1","parameterCategory":2,"la1":30.2991,"la2":30.254,"lo1":-89.0895,"lo2":-89.0444,"dy":0.0017,"dx":0.0017,"nx":28,"ny":28,"refTime":"2025-12-27T09:00:00:Z","depth":"4","parameterNumber":3,"parameterNumberName":"V-component_of_CURRENTS"},"data":[0,0,0,0,0,0,0,0,0,0,0,0,0,0,0,0,0,0,0,0,0,0,0,0,0,0,0,0,0,0,0,0,0,0,0,0,0,0,0,0,0,0,0,0,0,0,0,0,0,0,0,0,0,0,0,0,0,0,0.005,0.005,0,0.0022,0.0022,0.0021,-0.0007,-0.0007,-0.0007,-0.0008,-0.006,-0.0061,-0.0062,0,0,0,0,0,0,0,0,0,0,0,0,0,0.0064,0.0064,0.005,0.005,0.005,0.0022,0.0022,0.0021,-0.0007,-0.0007,-0.0007,-0.0008,-0.0059,-0.0061,-0.0062,0,0,0,0,0,0,0,0,0,0,0,0,0,0.0048,0.0064,0.005,0.0033,0.0032,0.0022,0.0022,0.0021,-0.0007,-0.0007,-0.0008,-0.0008,-0.0059,-0.0061,-0.0062,-0.0065,0,0,-0.0068,-0.0068,0,0,0,0,0,0,0,0,0.0049,0.0048,0.0036,0.0035,0.0033,0.0012,0.0008,-0.0008,-0.0007,0.0007,-0.0008,-0.0008,-0.0037,-0.004,-0.0046,-0.0067,-0.007,-0.0068,-0.0069,-0.0069,-0.007,0,0,0,0,0,0,0,0.005,0.0049,0.0038,0.0036,0.0034,0.0022,0.0019,0.0004,-0.0014,0.0005,0.0004,0.0003,-0.0038,-0.0045,-0.0048,-0.007,-0.0068,-0.0069,-0.007,-0.0071,-0.012,-0.012,0,0,0,0,0,0,0.0058,0.005,0.0039,0.0037,0.0042,0.0022,0.0019,0.0018,-0.0013,-0.0018,0.0003,0.0001,-0.0041,-0.0046,-0.005,-0.0063,-0.0069,-0.0071,-0.0072,-0.012,-0.012,-0.012,0,0,0,0,0,0,0.0058,0.0057,0.004,0.0044,0.0041,0.0023,0.0021,0.0018,0.0007,-0.0015,-0.002,-0.0004,-0.0042,-0.0047,-0.0062,-0.0065,-0.0072,-0.0073,-0.0119,-0.012,-0.012,-0.0085,0,0,0,0,0,0,0.0059,0.0057,0.0055,0.0044,0.0041,0.0038,0.0022,0.0017,0.0008,0.0006,-0.0022,-0.0027,-0.0043,-0.0059,-0.0064,-0.0068,-0.0075,-0.0119,-0.0119,-0.012,-0.0086,-0.0084,-0.0083,0,0,0,0,0,0.0059,0.0061,0.0055,0.0053,0.0039,0.0038,0.0035,0.002,0.0008,0.0008,-0.0011,-0.0026,-0.0066,-0.006,-0.0066,-0.007,-0.0119,-0.0119,-0.012,-0.0087,-0.0085,-0.0083,0,0,0,0,0,0,0.0064,0.0058,0.0051,0.005,0.0045,0.0034,0.0032,0.002,0.0005,-0.0,-0.0024,-0.003,-0.0044,-0.0063,-0.0057,-0.0088,-0.0097,-0.0099,-0.007,-0.0069,-0.0067,-0.0062,-0.0076,0,0,0,0,0,0.0065,0.0065,0.0058,0.0057,0.0057,0.0043,0.0039,0.003,0.0017,0.0009,-0.0011,-0.0034,-0.005,-0.0063,-0.0079,-0.0094,-0.0111,-0.0104,-0.0102,-0.0101,-0.0101,-0.0133,-0.0134,-0.0122,-0.0122,-0.0122,0,0,0.0068,0.0063,0.0063,0.0058,0.0053,0.0057,0.0039,0.0037,0.0039,0.0006,-0.0002,-0.0026,-0.0052,-0.0066,-0.0075,-0.0084,-0.011,-0.0102,-0.01,-0.0101,-0.0134,-0.0135,-0.0136,-0.0123,-0.0122,-0.0122,0,0,0.0077,0.0069,0.0075,0.0076,0.0071,0.0064,0.0064,0.0052,0.0046,0.0037,0.0014,-0.0009,-0.0037,-0.0055,-0.0068,-0.0068,-0.0096,-0.0083,-0.0076,-0.0106,-0.0107,-0.0108,-0.0114,-0.0116,-0.0088,-0.0087,-0.0087,0,0.0078,0.0085,0.0076,0.0085,0.0087,0.0069,0.0079,0.0074,0.0057,0.005,0.0039,-0.0007,-0.0029,-0.0046,-0.0053,-0.0063,-0.0083,-0.0077,-0.0103,-0.0105,-0.0107,-0.0113,-0.0115,-0.0086,-0.0086,-0.0086,-0.0086,0,0.0097,0.0101,0.0107,0.0111,0.0112,0.0118,0.0114,0.0107,0.0092,0.008,0.006,0.003,-0.0002,-0.0015,-0.0036,-0.0064,-0.0073,-0.0091,-0.0104,-0.0105,-0.0112,-0.0115,-0.0084,-0.0084,-0.0085,-0.0085,0,0,0.0102,0.0117,0.0119,0.0127,0.0127,0.0131,0.0136,0.0132,0.0129,0.0106,0.0097,0.0063,0.0034,0.0016,-0.0015,-0.0048,-0.0074,-0.0082,-0.0084,-0.008,-0.0132,-0.0143,-0.0148,-0.0106,-0.0107,-0.0107,-0.0125,0,0.0118,0.0142,0.0143,0.0162,0.0174,0.0164,0.0171,0.0164,0.0147,0.0133,0.0101,0.008,0.0052,0.0028,-0.0007,-0.0062,-0.0085,-0.0067,-0.0138,-0.0139,-0.0144,-0.0153,-0.011,-0.0127,-0.0128,-0.0129,-0.0129,0,0.0135,0.0149,0.0175,0.0189,0.0194,0.0201,0.0199,0.0204,0.0182,0.0167,0.0137,0.0106,0.0063,0.0035,-0.0042,-0.0035,-0.008,-0.0119,-0.012,-0.0148,-0.0158,-0.0132,-0.0136,-0.0135,-0.0135,-0.0134,-0.0134,0,0.0146,0.0168,0.019,0.0198,0.0212,0.0219,0.0221,0.021,0.0217,0.0185,0.0175,0.0123,0.0094,0.0027,-0.0054,-0.0056,-0.0142,-0.0149,-0.019,-0.019,-0.0188,-0.0187,-0.0199,-0.0199,-0.0199,-0.0198,-0.0198,0,0.0161,0.0176,0.0198,0.0213,0.0235,0.0237,0.0252,0.0243,0.0237,0.0242,0.0193,0.0176,0.0083,0.0023,-0.0046,-0.013,-0.0132,-0.0188,-0.0202,-0.017,-0.0167,-0.0189,-0.0188,-0.0199,-0.0199,-0.0199,-0.0199,0,0.0166,0.0182,0.0209,0.0233,0.0243,0.0258,0.0281,0.029,0.0278,0.0281,0.0273,0.0211,0.0126,0.0042,-0.007,-0.0116,-0.0197,-0.0224,-0.0169,-0.0179,-0.0219,-0.0216,-0.0259,-0.026,-0.026,-0.0261,-0.0261,0,0.017,0.0187,0.0227,0.0246,0.0259,0.0283,0.0304,0.031,0.0323,0.0302,0.0305,0.0227,0.0174,0.0027,-0.0077,-0.0196,-0.0217,-0.0241,-0.0243,-0.022,-0.0229,-0.0224,-0.022,-0.0262,-0.0262,-0.0263,-0.0263,0,0.0178,0.0193,0.0217,0.026,0.029,0.0323,0.0351,0.0367,0.0372,0.0366,0.0326,0.0244,0.0149,0.0024,-0.0075,-0.0162,-0.0219,-0.0247,-0.0247,-0.0249,-0.0224,-0.0231,-0.0227,-0.0265,-0.0265,-0.0264,-0.0264,0,0.0181,0.0197,0.0233,0.0267,0.0309,0.0347,0.0363,0.0378,0.0391,0.0376,0.0357,0.0251,0.0187,0.0041,-0.0052,-0.0142,-0.016,-0.0174,-0.0177,-0.0176,-0.0158,-0.0114,-0.0135,0,0,0,0,0,0.0183,0.0202,0.0236,0.0278,0.0322,0.0344,0.0388,0.0403,0.0416,0.0398,0.0381,0.0291,0.014,0.0066,-0.0025,-0.0067,-0.0179,-0.0176,-0.0197,-0.0276,-0.0274,-0.0269,0,0,0,0,0,0,0.0184,0.0216,0.0232,0.0281,0.0309,0.0358,0.0387,0.0399,0.0389,0.0384,0.0302,0.0269,0.0117,0.0186,-0.003,-0.0059,-0.0082,-0.0248,-0.0249,-0.0278,-0.0275,-0.0274,-0.0268,0,0,0,0,0]}]]